Windom, MN

2:19 PM CDT on August 18, 2017 (GMT -0500)
Windom Municipal

Weather History for KMWM - March, 2013

Change the Weather History Date:

Monday, March 11, 2013

  Actual Average Record
Temperature  
Mean Temperature 22 °F -  
Max Temperature 28 °F 39 °F 69 °F (2016)
Min Temperature 17 °F 19 °F -9 °F (1998)
Degree Days  
Heating Degree Days 42    
Moisture  
Dew Point 18 °F    
Average Humidity 84    
Maximum Humidity 100    
Minimum Humidity 69    
Precipitation  
Precipitation 0.00 in - - ()
Sea Level Pressure  
Sea Level Pressure 29.83 in    
Wind  
Wind Speed 18 mph (NW)    
Max Wind Speed 24 mph    
Max Gust Speed 32 mph    
Visibility 10 miles    
Events      
Averages and records for this station are not official NWS values.
T = Trace of Precipitation, MM = Missing Value Source: NWS Daily Summary

Daily Weather History Graph

Daily Weather History Graph

Search for Another Location

Airport or City:

Trip Planner

Search our weather history database for the weather conditions in past years. The results will help you decide how hot, cold, wet, or windy it might be!

Date:

Astronomy

Mar. 11, 2013 Rise Set
Actual Time 7:39 AM CDT 7:22 PM CDT
Civil Twilight 7:10 AM CDT 7:50 PM CDT
Nautical Twilight 6:37 AM CDT 8:24 PM CDT
Astronomical Twilight 6:03 AM CDT 8:58 PM CDT
Moon 7:12 AM CDT (3/11) 7:37 PM CDT (3/11)
Length of Visible Light 12h 40m
Length of Day
11h 42m
Waning Crescent, 0% of the Moon is Illuminated
Mar 11
Waning Crescent
Mar 11
New
Mar 19
First Quarter
Mar 27
Full
Apr 2
Last Quarter

Hourly Weather History & Observations

Time (CDT) Temp. Windchill Dew Point Humidity Pressure Visibility Wind Dir Wind Speed Gust Speed Precip Events Conditions
12:13 AM 21.2 °F 4.5 °F 19.4 °F 93% 29.88 in 10.0 mi NW 24.2 mph 32.2 mph N/A   Overcast
12:32 AM 21.2 °F 5.6 °F 19.4 °F 93% 29.88 in 10.0 mi NNW 20.7 mph 31.1 mph N/A   Overcast
12:52 AM 19.4 °F 2.1 °F 19.4 °F 100% 29.88 in 10.0 mi NNW 24.2 mph - N/A   Overcast
1:32 AM 21.2 °F 6.8 °F 19.4 °F 93% 29.87 in 10.0 mi NNW 17.3 mph - N/A   Overcast
1:53 AM 21.2 °F 6.0 °F 19.4 °F 93% 29.87 in 10.0 mi NNW 19.6 mph - N/A   Overcast
2:12 AM 19.4 °F 2.8 °F 19.4 °F 100% 29.86 in 10.0 mi NNW 21.9 mph - N/A   Overcast
2:52 AM 19.4 °F 2.5 °F 17.6 °F 93% 29.86 in 10.0 mi NW 23.0 mph 26.5 mph N/A   Overcast
3:12 AM 19.4 °F 2.5 °F 17.6 °F 93% 29.86 in 10.0 mi NNW 23.0 mph - N/A   Overcast
3:33 AM 19.4 °F 4.1 °F 17.6 °F 93% 29.85 in 10.0 mi NNW 18.4 mph - N/A   Overcast
3:52 AM 19.4 °F 2.8 °F 17.6 °F 93% 29.84 in 10.0 mi NNW 21.9 mph 25.3 mph N/A   Overcast
4:12 AM 19.4 °F 3.6 °F 17.6 °F 93% 29.83 in 10.0 mi NW 19.6 mph - N/A   Overcast
4:33 AM 19.4 °F 3.6 °F 17.6 °F 93% 29.83 in 10.0 mi NW 19.6 mph 24.2 mph N/A   Overcast
5:12 AM 17.6 °F 2.2 °F 15.8 °F 93% 29.82 in 10.0 mi NW 17.3 mph - N/A   Overcast
5:33 AM 19.4 °F 4.5 °F 17.6 °F 93% 29.82 in 10.0 mi NNW 17.3 mph - N/A   Overcast
5:52 AM 19.4 °F 5.0 °F 17.6 °F 93% 29.82 in 10.0 mi NW 16.1 mph - N/A   Overcast
6:12 AM 19.4 °F 3.6 °F 17.6 °F 93% 29.82 in 10.0 mi NW 19.6 mph - N/A   Overcast
6:33 AM 17.6 °F 2.7 °F 15.8 °F 93% 29.83 in 10.0 mi NW 16.1 mph - N/A   Overcast
6:52 AM 19.4 °F 4.5 °F 15.8 °F 86% 29.82 in 10.0 mi NW 17.3 mph 20.7 mph N/A   Overcast
7:12 AM 19.4 °F 4.1 °F 15.8 °F 86% 29.83 in 10.0 mi NW 18.4 mph - N/A   Overcast
7:33 AM 17.6 °F 2.7 °F 15.8 °F 93% 29.82 in 10.0 mi NW 16.1 mph 23.0 mph N/A   Overcast
7:52 AM 17.6 °F 2.7 °F 15.8 °F 93% 29.83 in 10.0 mi NW 16.1 mph - N/A   Overcast
8:12 AM 19.4 °F 4.5 °F 15.8 °F 86% 29.83 in 10.0 mi NW 17.3 mph 20.7 mph N/A   Overcast
8:33 AM 19.4 °F 6.0 °F 15.8 °F 86% 29.83 in 10.0 mi NW 13.8 mph - N/A   Overcast
8:52 AM 19.4 °F 5.0 °F 15.8 °F 86% 29.83 in 10.0 mi NW 16.1 mph - N/A   Overcast
9:12 AM 17.6 °F 3.2 °F 15.8 °F 93% 29.83 in 10.0 mi NW 15.0 mph - N/A   Overcast
9:32 AM 17.6 °F 2.2 °F 15.8 °F 93% 29.83 in 10.0 mi NW 17.3 mph - N/A   Overcast
9:52 AM 19.4 °F 5.5 °F 15.8 °F 86% 29.83 in 10.0 mi NW 15.0 mph - N/A   Overcast
10:12 AM 19.4 °F 6.0 °F 15.8 °F 86% 29.83 in 10.0 mi NW 13.8 mph - N/A   Overcast
10:33 AM 19.4 °F 6.0 °F 15.8 °F 86% 29.83 in 10.0 mi NW 13.8 mph - N/A   Overcast
10:52 AM 19.4 °F 5.5 °F 15.8 °F 86% 29.83 in 10.0 mi NW 15.0 mph - N/A   Overcast
11:12 AM 21.2 °F 7.8 °F 17.6 °F 86% 29.83 in 10.0 mi NW 15.0 mph - N/A   Overcast
11:33 AM 21.2 °F 7.8 °F 17.6 °F 86% 29.82 in 10.0 mi NW 15.0 mph 19.6 mph N/A   Overcast
11:52 AM 23.0 °F 9.6 °F 19.4 °F 86% 29.83 in 10.0 mi NW 16.1 mph - N/A   Overcast
12:12 PM 23.0 °F 9.2 °F 17.6 °F 80% 29.82 in 10.0 mi NW 17.3 mph - N/A   Overcast
12:33 PM 23.0 °F 9.6 °F 19.4 °F 86% 29.81 in 10.0 mi NW 16.1 mph - N/A   Mostly Cloudy
12:52 PM 24.8 °F 13.4 °F 19.4 °F 80% 29.81 in 10.0 mi NW 12.7 mph - N/A   Scattered Clouds
1:12 PM 24.8 °F 12.4 °F 19.4 °F 80% 29.81 in 10.0 mi NW 15.0 mph - N/A   Clear
1:33 PM 24.8 °F 11.5 °F 19.4 °F 80% 29.80 in 10.0 mi NNW 17.3 mph 21.9 mph N/A   Scattered Clouds
1:52 PM 24.8 °F 11.9 °F 19.4 °F 80% 29.79 in 10.0 mi NW 16.1 mph 19.6 mph N/A   Scattered Clouds
2:12 PM 24.8 °F 12.4 °F 19.4 °F 80% 29.79 in 10.0 mi NW 15.0 mph 18.4 mph N/A   Mostly Cloudy
2:33 PM 24.8 °F 11.9 °F 19.4 °F 80% 29.78 in 10.0 mi NW 16.1 mph - N/A   Scattered Clouds
2:52 PM 24.8 °F 12.4 °F 19.4 °F 80% 29.78 in 10.0 mi NW 15.0 mph - N/A   Scattered Clouds
3:12 PM 24.8 °F 11.5 °F 19.4 °F 80% 29.79 in 10.0 mi NW 17.3 mph - N/A   Scattered Clouds
3:32 PM 24.8 °F 11.5 °F 19.4 °F 80% 29.79 in 10.0 mi NW 17.3 mph - N/A   Clear
3:52 PM 26.6 °F 15.2 °F 19.4 °F 74% 29.80 in 10.0 mi NW 13.8 mph - N/A   Clear
4:12 PM 26.6 °F 15.7 °F 19.4 °F 74% 29.80 in 10.0 mi WNW 12.7 mph 21.9 mph N/A   Scattered Clouds
4:32 PM 26.6 °F 15.2 °F 19.4 °F 74% 29.80 in 10.0 mi NW 13.8 mph 19.6 mph N/A   Mostly Cloudy
4:53 PM 26.6 °F 15.2 °F 19.4 °F 74% 29.80 in 10.0 mi NW 13.8 mph - N/A   Overcast
5:12 PM 28.4 °F 15.8 °F 19.4 °F 69% 29.80 in 10.0 mi NW 18.4 mph - N/A   Mostly Cloudy
5:32 PM 26.6 °F 15.2 °F 19.4 °F 74% 29.80 in 10.0 mi NW 13.8 mph 18.4 mph N/A   Overcast
5:53 PM 28.4 °F 18.0 °F 19.4 °F 69% 29.80 in 10.0 mi NW 12.7 mph - N/A   Overcast
6:12 PM 26.6 °F 16.8 °F 19.4 °F 74% 29.80 in 10.0 mi NW 10.4 mph - N/A   Overcast
6:32 PM 26.6 °F 17.5 °F 17.6 °F 69% 29.81 in 10.0 mi NW 9.2 mph - N/A   Overcast
6:52 PM 26.6 °F 16.2 °F 17.6 °F 69% 29.82 in 10.0 mi NW 11.5 mph - N/A   Overcast
7:12 PM 26.6 °F 16.8 °F 17.6 °F 69% 29.83 in 10.0 mi WNW 10.4 mph - N/A   Overcast
7:32 PM 26.6 °F 16.2 °F 19.4 °F 74% 29.83 in 10.0 mi WNW 11.5 mph - N/A   Overcast
7:52 PM 26.6 °F 17.5 °F 19.4 °F 74% 29.84 in 10.0 mi WNW 9.2 mph - N/A   Overcast
8:12 PM 26.6 °F 15.7 °F 19.4 °F 74% 29.84 in 10.0 mi WNW 12.7 mph - N/A   Overcast
8:32 PM 26.6 °F 15.2 °F 21.2 °F 80% 29.85 in 10.0 mi WNW 13.8 mph - N/A   Overcast
8:52 PM 26.6 °F 17.5 °F 21.2 °F 80% 29.85 in 10.0 mi WNW 9.2 mph - N/A   Overcast
9:12 PM 26.6 °F 17.5 °F 21.2 °F 80% 29.86 in 10.0 mi WNW 9.2 mph - N/A   Overcast
9:32 PM 26.6 °F 18.2 °F 21.2 °F 80% 29.86 in 10.0 mi West 8.1 mph - N/A   Overcast
9:52 PM 26.6 °F 16.8 °F 21.2 °F 80% 29.86 in 10.0 mi West 10.4 mph - N/A   Scattered Clouds
10:12 PM 24.8 °F 14.6 °F 19.4 °F 80% 29.86 in 10.0 mi West 10.4 mph - N/A   Clear
10:32 PM 24.8 °F 14.0 °F 19.4 °F 80% 29.87 in 10.0 mi West 11.5 mph - N/A   Clear
10:52 PM 26.6 °F 15.2 °F 19.4 °F 74% 29.87 in 10.0 mi West 13.8 mph - N/A   Mostly Cloudy
11:12 PM 26.6 °F 14.3 °F 19.4 °F 74% 29.87 in 10.0 mi West 16.1 mph - N/A   Overcast
11:52 PM 26.6 °F 15.2 °F 21.2 °F 80% 29.87 in 10.0 mi West 13.8 mph - N/A   Overcast